Notices

What's New in latest Release from April 7th, 2021:

- Updated Glossary, including Speed of Maximum Gust, and Total Hourly Precipitation

- Updated national and regional climate services offices contacts and prices information

- Addition of station inventory lists for 1981-2010, 1971-2000, and 1961-1990 Normals.

If you haven't already, please take our survey and provide feedback about our website: https://eccc.sondage-survey.ca/f/LanguageSelection.aspx?s=442ca660-fcf1-47c0-95a9-59707d6fd709

Hourly Data Report for January 05, 2020

SATURNA ISLAND CS
BRITISH COLUMBIA
Current Station Operator: ECCC - MSC

48°47'02.067" N
123°02'41.082" W
24.40 m
1017101
71473
WEZ

Download Data

Hourly Data (January 2020)
Hourly Data Report for January 5, 2020
TIME
LST
Temp Definition
°C
Dew Point Definition
°C
Rel Hum Definition
%
Precip. Amount Definition
mm

Wind Dir Definition
10's deg

Wind Spd Definition
km/h
Visibility Definition
km
Stn Press Definition
kPa
Hmdx Definition


Wind Chill Definition


Weather Definition


00:00 7.2 4.7 84 0.0 18 34   102.04     LegendNANA
01:00 7.2 4.7 84 0.0 17 33   101.96     LegendNANA
02:00 7.3 4.4 82 0.0 16 32   101.94     LegendNANA
03:00 7.4 4.6 82 0.0 16 32   101.86     LegendNANA
04:00 7.4 4.8 83 0.0 18 46   101.75     LegendNANA
05:00 7.5 4.7 83 0.0 18 45   101.69     LegendNANA
06:00 7.3 4.4 82 0.0 17 53   101.54     LegendNANA
07:00 7.4 4.5 82 0.0 17 56   101.43     LegendNANA
08:00 7.4 4.7 83 0.0 16 53   101.36     LegendNANA
09:00 7.5 4.3 81 0.0 17 64   101.26     LegendNANA
10:00 7.3 4.4 82 0.0 17 65   101.22     LegendNANA
11:00 7.6 5.4 86 0.8 19 64   101.21     LegendNANA
12:00 8.4 3.2 70 0.0 24 24   101.34     LegendNANA
13:00 8.9 0.2 54 0.0 26 15   101.52     LegendNANA
14:00 8.7 -2.7 45 0.0 27 11   101.73     LegendNANA
15:00 7.8 -0.1 57 0.0 25 13   101.92     LegendNANA
16:00 7.1 -1.3 55 0.0 27 12   102.05     LegendNANA
17:00 7.2 0.7 63 0.0 25 10   102.13     LegendNANA
18:00 6.8 2.1 72 0.0 22 22   102.17     LegendNANA
19:00 6.2 3.3 81 0.0 22 28   102.20     LegendNANA
20:00 6.4 3.3 81 0.0 23 25   102.21     LegendNANA
21:00 6.5 3.3 80 0.0 23 25   102.24     LegendNANA
22:00 6.1 4.0 87 0.2 21 25   102.25     LegendNANA
23:00 5.4 4.0 90 1.0 22 22   102.25     LegendNANA

Notes on Data Quality.

Legend

  • E = Estimated
  • M = Missing
  • NA = Not Available*
  • [empty] = Indicates an unobserved value
Date modified: